Location: Arran
(51.9410°N, 101.7372°W)
Time: 08:40:17
(UTC+00:00)

DIWATA 2B (PO-101) - Visible Passes

Search period start: 06 December 2023 00:00
Search period end: 16 December 2023 00:00
Orbit: 579 x 591 km, 98.0° (Epoch: 05 December)

Date Brightness Start Highest point End Pass type
(mag) Time Alt. Az. Time Alt. Az. Time Alt. Az.
06 Dec ? 00:39:34 10° NNW 00:41:28 13° NW 00:43:21 10° W visible
07 Dec ? 00:46:22 10° NNW 00:47:46 11° NW 00:49:10 10° WNW visible
07 Dec ? 23:15:22 10° N 23:19:31 61° WNW 23:23:38 10° SSW visible
08 Dec ? 00:53:29 10° NW 00:54:04 10° NW 00:54:38 10° WNW visible
08 Dec ? 23:21:47 10° N 23:25:53 53° WNW 23:29:57 10° SSW visible
09 Dec ? 23:28:13 10° N 23:32:14 47° WNW 23:36:15 10° SW visible
10 Dec ? 23:34:38 10° N 23:38:35 41° WNW 23:42:31 10° SW visible
11 Dec ? 23:41:05 10° N 23:44:56 36° WNW 23:48:46 10° SW visible
12 Dec ? 23:47:31 10° N 23:51:16 32° WNW 23:54:59 10° SW visible
13 Dec ? 23:53:59 10° N 23:57:35 29° WNW 00:01:10 10° WSW visible
15 Dec ? 00:00:26 10° N 00:03:54 26° WNW 00:07:21 10° WSW visible
